SL-8 DEB

Satellite information

Favourite Embed

Satellite Type and Status

DEBRISIN ORBIT

Key statistics

Satellite SL-8 DEB at a glance.

Uptime

15546

Days in orbit

Revolutions

≈ 13.8

Per day

Orbit

LEO

Low Earth Orbit

Inclination

83.0

Latest

Satellite identification and parameters

Extended collection of information and parameters for SL-8 DEB.

Object identification

Identified? True

Debris? True

Object name: SL-8 DEB

International designator: 1982-102C

Object number (NORAD): 37632

Object ID (CCSDS): 37632

Country: COMMONWEALTH OF INDEPENDENT STATES (CIS)

Current information (Y/N): Y

RCS size: SMALL

Orbital parameters

Period: 104.312 minutes

Inclination: 82.9622 deg

SMA: 7340.337 km

Apoapsis: 983.032 km

Periapsis: 941.372 km

RAAN: 151.3336 deg

Eccentricy: 0.0028377

Argument of periapsis: 298.4314 deg

Mean anomaly: 61.3986 deg

Mean motion: 13.80475692 rev/day

Mean motion (dot): 0.00000538 rev/day2

B* drag term: 0.00049828 1/REarth

Two-line elements (TLE)

Creation date: May 10, 2025, 5:27 p.m.

Reference frame: TEME

Reference center: EARTH

Epoch: May 10, 2025, 8:04 a.m. UTC

TLE line 0: 0 SL-8 DEB

TLE line 1: 1 37632U 82102C 25130.33653672 .00000538 00000-0 49828-3 0 9990

TLE line 2: 2 37632 82.9622 151.3336 0028377 298.4314 61.3986 13.80475692530277

Live tracking on map

Real-time ground track for satellite SL-8 DEB.

In-orbit conjunctions

A list of the most updated potential collisions computed for object SL-8 DEB.

Target Orbit TCA Probability of collision Miss distance Type
SL-8 R/B LEO 2025-03-15 22:30:50 0.0001007676 397.0 (m) ROCKET BODY
CALSPHERE 1 SSO 2024-12-16 09:15:16 0.0005285736 224.0 (m) PAYLOAD
EPSILON R/B LEO 2024-11-03 17:42:08 0.0001984681 394.0 (m) ROCKET BODY
COSMOS 2123 LEO 2024-08-29 22:10:37 0.0002362083 255.0 (m) PAYLOAD

Associated space launch

Navigation satellite providing location information for the Tsiklon-B navigation system

SL-8 DEB was lifted into orbit during the mission ‘Kosmos-3M | Parus 35’, on board a Kosmos-3M space rocket.

The launch took place on Oct. 19, 1982, 5:58 a.m. from 132/1 (132L).

For more information about the launch, click the button.

Launch to space Kosmos-3M | Parus 35
Kosmos-3M | Parus 35

Agency: N/A

Status: Launch Successful

Launch date: Oct. 19, 1982, 5:58 a.m. UTC

Rocket: Kosmos-3M

Launch pad: 132/1 (132L)

Location: Plesetsk Cosmodrome, Russian Federation

...

Latest news about this satellite

There are no fresh news available about this satellite. Check back as we update our databases every day.


Newsletter sign-up

Weekly statistics, charts and insights to help you stay on top of the space industry.